SES-5

Last updated on Sat Mar 14 2026 00:02:54 GMT+0000 (Coordinated Universal Time)

1 38652U 12036A 26072.36989076 .00000034 00000+0 00000+0 0 9996 2 38652 0.0621 308.2644 0001933 45.9498 314.9176 1.00273267 43496
UTC large
Height (km)
Speed (km/s)
/
Latitude / Longitude
Inclination (degrees)
Orbital Period (minutes)
Azimuth
Elevation
Range (km)
Doppler Factor

Next 0 passes for location: London (51.5072 / 0.1276)

Sorry there are no passes over London.